Location: Alvediston
(51.0078°N, 2.0364°W)
Time: 09:18:21
(UTC+00:00)

NOSS 2-3 (E) - Pass Details

Date: 27 February 2020
Orbit: 583 x 1628 km, 63.4° (Epoch: 26 March)

Event Time Altitude Azimuth Distance (km) Brightness Sun altitude
Rises 18:50:55 0° 229° (SW) 2,843 7.8 -11.2°
Reaches altitude 10° 18:53:01 10° 231° (SW) 1,995 7.0 -11.5°
Maximum altitude 18:57:26 74° 317° (NW) 730 4.0 -12.2°
Drops below altitude 10° 19:02:53 10° 43° (NE) 2,440 6.2 -13.1°
Enters shadow 19:04:14 - 44° (NE) 2,973 6.7 -13.3°
